Location: Ertinghausen
(51.6624°N, 9.7874°E)
Time: 13:56:36
(UTC+00:00)

CZ-2C R/B - Pass Details

Date: 14 August 2024
Orbit: 703 x 903 km, 98.2° (Epoch: 14 September)

Event Time Altitude Azimuth Distance (km) Brightness Sun altitude
Rises 02:52:04 0° 6° (N) 3,190 7.0 -10.4°
Reaches altitude 10° 02:54:39 10° 353° (N) 2,290 5.9 -10.1°
Maximum altitude 02:58:40 25° 300° (WNW) 1,550 4.4 -9.6°
Enters shadow 03:02:44 10° 248° (WSW) 2,351 4.9 -9.1°
